Back to catalog

STARLINK-34003

AliveCommunicationsVLEO
NORAD 63882·PAYLOAD·🇺🇸 United States

Launched May 10, 2025 from Vandenberg Space Force Base

Loading…

Next Passes (next 24 hours)

TLE

FreshSource: CelesTrak SupGP

Epoch: Sep 14, 2026, 14:30 UTC

1 63882C 25094U   26257.60465278 -.00044851  00000+0 -95598-3 0  2576
2 63882  70.0008  54.6124 0003464 269.6328 137.1339 15.44776819    19

Track STARLINK-34003 in real time with AllMySat

Download on the App Store